RYR9HM EYKA-LGRP

Flight info

Callsign RYR9HM
Flight time N/A
Altitude 38000
Route BOKSU DCT SUWGI M857 BULEP DCT VAXUR DCT LODBO DCT OBOSO M857 PODAN/N0450F370 DCT HATIP DCT ROMKA DCT URNEQ DCT OVDOT DCT NIKTI UN127 LMO UL618 MES UN139 LURUS
Aircraft B38M/M-SDE1FGHILORVWXY/HB1

Departure

Time 2026-04-30 14:01
Airport Kaunas International Airport (EYKA)

Arrival

Time N/A
Airport Rhodes International Airport "Diagoras" (LGRP)
Time Latitude Longitude Altitude Speed Heading
2026-04-30 13:46 54.96597 24.07395 250 ft 0 kts 102°
2026-04-30 13:48 54.96597 24.07396 250 ft 0 kts 102°
2026-04-30 13:52 54.96597 24.07398 250 ft 1 kts 102°
2026-04-30 13:53 54.96594 24.07418 251 ft 3 kts 102°
2026-04-30 13:53 54.96584 24.07456 251 ft 5 kts 124°
2026-04-30 13:53 54.96534 24.07487 251 ft 12 kts 168°
2026-04-30 13:53 54.96516 24.07599 251 ft 15 kts 83°
2026-04-30 13:54 54.96527 24.07832 252 ft 24 kts 85°
2026-04-30 13:54 54.96552 24.08092 254 ft 20 kts 71°
2026-04-30 13:54 54.96580 24.08325 255 ft 20 kts 86°
2026-04-30 13:54 54.96590 24.08569 256 ft 21 kts 85°
2026-04-30 13:55 54.96603 24.08824 257 ft 22 kts 85°
2026-04-30 13:55 54.96614 24.09064 258 ft 18 kts 85°
2026-04-30 13:55 54.96623 24.09284 259 ft 19 kts 85°
2026-04-30 13:55 54.96634 24.09504 260 ft 13 kts 85°
2026-04-30 13:56 54.96599 24.09634 261 ft 12 kts 157°
2026-04-30 13:56 54.96555 24.09648 261 ft 0 kts 175°
2026-04-30 13:57 54.96550 24.09649 261 ft 3 kts 175°
2026-04-30 13:57 54.96489 24.09658 261 ft 16 kts 175°
2026-04-30 13:58 54.96445 24.09739 261 ft 12 kts 75°
2026-04-30 13:58 54.96484 24.10295 265 ft 29 kts 85°
2026-04-30 13:58 54.96498 24.10586 267 ft 20 kts 83°
2026-04-30 13:59 54.96524 24.10765 266 ft 14 kts 54°
2026-04-30 13:59 54.96568 24.10910 266 ft 11 kts 82°
2026-04-30 13:59 54.96520 24.10984 266 ft 11 kts 192°
2026-04-30 13:59 54.96506 24.10890 265 ft 10 kts 276°
2026-04-30 14:00 54.96507 24.10768 266 ft 10 kts 265°
2026-04-30 14:00 54.96489 24.10396 265 ft 49 kts 265°
2026-04-30 14:00 54.96435 24.09313 257 ft 129 kts 265°
2026-04-30 14:01 54.96341 24.07385 365 ft 185 kts 265°
2026-04-30 14:01 54.96251 24.04916 796 ft 224 kts 266°
2026-04-30 14:01 54.96112 24.02177 1869 ft 223 kts 266°
2026-04-30 14:01 54.95973 23.99451 2656 ft 234 kts 266°
2026-04-30 14:02 54.95821 23.96550 3334 ft 243 kts 266°
2026-04-30 14:02 54.95668 23.93608 4208 ft 246 kts 267°
2026-04-30 14:02 54.95510 23.90581 4819 ft 256 kts 268°
2026-04-30 14:02 54.95345 23.87459 5000 ft 261 kts 268°
2026-04-30 14:03 54.95177 23.84310 5041 ft 262 kts 269°
2026-04-30 14:03 54.95007 23.81146 5009 ft 263 kts 269°
2026-04-30 14:03 54.94837 23.77986 4986 ft 262 kts 268°
2026-04-30 14:03 54.94668 23.74841 5003 ft 261 kts 268°
2026-04-30 14:04 54.94228 23.71810 4978 ft 269 kts 244°
2026-04-30 14:04 54.92965 23.69374 5284 ft 277 kts 216°
2026-04-30 14:04 54.91265 23.67748 6059 ft 282 kts 210°
2026-04-30 14:04 54.89504 23.66117 6750 ft 290 kts 210°
2026-04-30 14:05 54.87709 23.64474 7450 ft 295 kts 210°
2026-04-30 14:05 54.85876 23.62814 8176 ft 299 kts 210°
2026-04-30 14:05 54.84015 23.61138 8906 ft 304 kts 209°
2026-04-30 14:05 54.82122 23.59439 9635 ft 309 kts 209°
2026-04-30 14:06 54.80195 23.57716 10313 ft 316 kts 209°
2026-04-30 14:06 54.76076 23.54038 11005 ft 348 kts 209°
2026-04-30 14:07 54.71691 23.50135 12277 ft 359 kts 208°
2026-04-30 14:07 54.69451 23.48143 12940 ft 364 kts 208°
2026-04-30 14:07 54.67179 23.46127 13638 ft 370 kts 208°
2026-04-30 14:08 54.62542 23.42019 14951 ft 380 kts 208°
2026-04-30 14:08 54.60172 23.39924 15591 ft 385 kts 208°
2026-04-30 14:08 54.55345 23.35664 16884 ft 395 kts 208°
2026-04-30 14:09 54.52885 23.33498 17503 ft 400 kts 208°
2026-04-30 14:09 54.50394 23.31290 18120 ft 405 kts 210°
2026-04-30 14:09 54.45832 23.25524 19232 ft 412 kts 220°
2026-04-30 14:10 54.43539 23.22514 19733 ft 417 kts 219°
2026-04-30 14:10 54.41220 23.19490 20223 ft 421 kts 219°
2026-04-30 14:10 54.38870 23.16436 20717 ft 426 kts 219°
2026-04-30 14:10 54.36513 23.13375 21448 ft 421 kts 219°
2026-04-30 14:11 54.34194 23.10368 22285 ft 417 kts 219°
2026-04-30 14:11 54.31862 23.07352 22701 ft 424 kts 218°
2026-04-30 14:11 54.29293 23.04855 23163 ft 426 kts 199°
2026-04-30 14:11 54.26506 23.03093 23669 ft 430 kts 200°
2026-04-30 14:12 54.23695 23.01197 23965 ft 438 kts 200°
2026-04-30 14:12 54.20857 22.99288 24405 ft 439 kts 200°
2026-04-30 14:12 54.17997 22.97374 24740 ft 444 kts 200°
2026-04-30 14:12 54.16087 22.96098 24989 ft 446 kts 200°
2026-04-30 14:13 54.12201 22.93508 25476 ft 451 kts 200°
2026-04-30 14:13 54.09267 22.91555 25822 ft 454 kts 200°
2026-04-30 14:13 54.06286 22.89747 26167 ft 455 kts 191°
2026-04-30 14:13 54.03194 22.88594 26536 ft 456 kts 189°
2026-04-30 14:14 54.00077 22.87412 26844 ft 461 kts 189°
2026-04-30 14:14 53.96939 22.86210 27200 ft 463 kts 189°
2026-04-30 14:14 53.93783 22.85008 27524 ft 467 kts 189°
2026-04-30 14:14 53.90601 22.83800 27854 ft 470 kts 189°
2026-04-30 14:15 53.87402 22.82588 28183 ft 473 kts 188°
2026-04-30 14:15 53.84179 22.81369 28496 ft 476 kts 188°
2026-04-30 14:15 53.80939 22.80144 28810 ft 479 kts 188°
2026-04-30 14:15 53.77675 22.78913 29117 ft 482 kts 188°
2026-04-30 14:16 53.74393 22.77677 29417 ft 485 kts 188°
2026-04-30 14:16 53.71093 22.76436 29736 ft 487 kts 188°
2026-04-30 14:16 53.67775 22.75190 30073 ft 490 kts 188°
2026-04-30 14:16 53.64428 22.73935 30349 ft 494 kts 188°
2026-04-30 14:17 53.61068 22.72677 30613 ft 496 kts 188°
2026-04-30 14:17 53.57707 22.71421 31037 ft 492 kts 188°
2026-04-30 14:17 53.54441 22.70202 31659 ft 484 kts 188°
2026-04-30 14:17 53.51117 22.68963 31986 ft 484 kts 188°
2026-04-30 14:18 53.47836 22.67743 32388 ft 479 kts 188°
2026-04-30 14:18 53.44620 22.66548 33088 ft 467 kts 187°
2026-04-30 14:18 53.38473 22.64271 34331 ft 445 kts 187°
2026-04-30 14:19 53.32475 22.62055 34761 ft 441 kts 187°
2026-04-30 14:19 53.29483 22.60952 34906 ft 440 kts 187°
2026-04-30 14:19 53.26498 22.59855 35088 ft 439 kts 188°
2026-04-30 14:20 53.23531 22.58763 35326 ft 435 kts 188°
2026-04-30 14:20 53.20576 22.57678 35428 ft 435 kts 188°
2026-04-30 14:20 53.14633 22.55502 35447 ft 442 kts 189°
2026-04-30 14:21 53.08541 22.53276 35363 ft 453 kts 189°
2026-04-30 14:22 52.99198 22.49875 35433 ft 465 kts 189°
2026-04-30 14:22 52.89577 22.46388 35497 ft 478 kts 189°
2026-04-30 14:23 52.76315 22.41644 35587 ft 497 kts 188°
2026-04-30 14:24 52.69464 22.39327 35752 ft 504 kts 188°
2026-04-30 14:24 52.66071 22.38174 35899 ft 506 kts 188°
2026-04-30 14:25 52.59166 22.35837 36256 ft 507 kts 189°
2026-04-30 14:25 52.52247 22.33502 36631 ft 508 kts 189°
2026-04-30 14:26 52.45302 22.31166 36963 ft 510 kts 189°
2026-04-30 14:26 52.41825 22.30000 37116 ft 511 kts 189°
2026-04-30 14:26 52.34852 22.27666 37421 ft 512 kts 189°
2026-04-30 14:27 52.31364 22.26502 37592 ft 512 kts 189°
2026-04-30 14:27 52.27870 22.25337 37747 ft 512 kts 189°
2026-04-30 14:27 52.24387 22.24178 37921 ft 511 kts 189°
2026-04-30 14:28 52.17435 22.21870 38296 ft 509 kts 190°
2026-04-30 14:28 52.13990 22.20728 38422 ft 501 kts 190°
2026-04-30 14:28 52.07242 22.18498 38384 ft 489 kts 190°
2026-04-30 14:29 51.95026 22.14479 38384 ft 490 kts 190°
2026-04-30 14:31 51.77253 22.08864 38388 ft 488 kts 188°
2026-04-30 14:31 51.67221 22.05971 38384 ft 488 kts 188°
2026-04-30 14:32 51.57192 22.03088 38374 ft 487 kts 188°
2026-04-30 14:33 51.50514 22.01175 38378 ft 488 kts 188°
2026-04-30 14:33 51.40496 21.98316 38372 ft 487 kts 188°
2026-04-30 14:34 51.33814 21.96416 38379 ft 487 kts 188°
2026-04-30 14:34 51.27136 21.94523 38379 ft 487 kts 188°
2026-04-30 14:35 51.17119 21.91693 38367 ft 487 kts 188°
2026-04-30 14:36 51.10452 21.89817 38381 ft 486 kts 188°
2026-04-30 14:36 51.04918 21.88264 38376 ft 486 kts 188°
2026-04-30 14:37 50.98256 21.86400 38369 ft 486 kts 188°
2026-04-30 14:37 50.91596 21.84541 38367 ft 486 kts 189°
2026-04-30 14:38 50.84938 21.82688 38370 ft 485 kts 189°
2026-04-30 14:38 50.78290 21.80843 38366 ft 485 kts 189°
2026-04-30 14:39 50.71636 21.79002 38365 ft 485 kts 189°
2026-04-30 14:39 50.64984 21.77166 38359 ft 485 kts 189°
2026-04-30 14:40 50.55031 21.74427 38365 ft 484 kts 189°
2026-04-30 14:40 50.48388 21.72605 38360 ft 484 kts 189°
2026-04-30 14:41 50.41751 21.70789 38362 ft 484 kts 189°
2026-04-30 14:41 50.35117 21.68979 38361 ft 484 kts 189°
2026-04-30 14:42 50.28483 21.67175 38386 ft 484 kts 189°
2026-04-30 14:42 50.21847 21.65375 38344 ft 483 kts 189°
2026-04-30 14:43 50.15237 21.63588 38341 ft 482 kts 189°
2026-04-30 14:43 50.08677 21.61818 38357 ft 482 kts 189°
2026-04-30 14:44 50.02069 21.60041 38357 ft 482 kts 189°
2026-04-30 14:44 49.95464 21.58269 38365 ft 481 kts 189°
2026-04-30 14:45 49.88867 21.56505 38362 ft 481 kts 189°
2026-04-30 14:45 49.82270 21.54745 38360 ft 481 kts 189°
2026-04-30 14:46 49.75672 21.52990 38349 ft 481 kts 189°
2026-04-30 14:46 49.69078 21.51242 38357 ft 480 kts 189°
2026-04-30 14:47 49.62489 21.49499 38350 ft 480 kts 189°
2026-04-30 14:47 49.55898 21.47760 38346 ft 481 kts 189°
2026-04-30 14:48 49.49310 21.46026 38350 ft 480 kts 189°
2026-04-30 14:48 49.42708 21.44484 38309 ft 479 kts 179°
2026-04-30 14:49 49.39423 21.44977 38240 ft 471 kts 163°
2026-04-30 14:49 49.36280 21.46270 38470 ft 467 kts 164°
2026-04-30 14:49 49.33112 21.47517 38285 ft 472 kts 163°
2026-04-30 14:49 49.29942 21.48811 38348 ft 472 kts 163°
2026-04-30 14:50 49.20406 21.52836 38354 ft 476 kts 162°
2026-04-30 14:51 49.10829 21.56901 38350 ft 476 kts 162°
2026-04-30 14:52 49.01299 21.60930 38348 ft 476 kts 162°
2026-04-30 14:52 48.91721 21.64964 38347 ft 476 kts 163°
2026-04-30 14:53 48.82141 21.68983 38338 ft 476 kts 163°
2026-04-30 14:54 48.69264 21.73369 38452 ft 472 kts 170°
2026-04-30 14:55 48.62736 21.74874 38278 ft 475 kts 170°
2026-04-30 14:55 48.59471 21.75618 38335 ft 474 kts 170°
2026-04-30 14:56 48.46381 21.78583 38318 ft 476 kts 171°
2026-04-30 14:57 48.36562 21.80799 38316 ft 476 kts 171°
2026-04-30 14:58 48.23466 21.83741 38316 ft 476 kts 170°
2026-04-30 14:58 48.13744 21.86738 38320 ft 476 kts 167°
2026-04-30 15:00 47.97562 21.91636 38312 ft 474 kts 168°
2026-04-30 15:01 47.84622 21.95527 38312 ft 474 kts 168°
2026-04-30 15:01 47.74934 21.98427 38301 ft 473 kts 168°
2026-04-30 15:02 47.68493 22.00349 38275 ft 471 kts 168°
2026-04-30 15:03 47.52410 22.05127 38283 ft 471 kts 168°
2026-04-30 15:04 47.36344 22.09870 38268 ft 471 kts 168°
2026-04-30 15:06 47.20306 22.14754 38272 ft 471 kts 168°
2026-04-30 15:07 47.07550 22.18922 38263 ft 471 kts 168°
2026-04-30 15:08 46.94725 22.23087 38270 ft 472 kts 168°
2026-04-30 15:09 46.78659 22.28274 38244 ft 473 kts 168°
2026-04-30 15:10 46.65800 22.32404 38243 ft 473 kts 168°
2026-04-30 15:11 46.46564 22.38543 38258 ft 472 kts 169°
2026-04-30 15:13 46.30511 22.43633 38244 ft 472 kts 169°
2026-04-30 15:14 46.08022 22.50712 38247 ft 473 kts 169°
2026-04-30 15:17 45.79092 22.59732 38252 ft 473 kts 170°
2026-04-30 15:19 45.53447 22.67650 38255 ft 471 kts 170°